Theta_e
323 324 324 324 325 324 324 325 325 325 326 326 326 327 327 327 328 328 329 329 329 329 329 329 329 330 329 328 327 325 320 318 315 312 308 311 323 330 331 333 333 332 330 314 314 312 311 311 310 308 310 312 309 310 308 311 309 310 304 301 299 299 298 301 299 300 301 300 303 303 300 300 299 300 302 301 300 299 301 301 304 304 303 305 308 311 310 309
323 323 323 323 324 324 325 325 325 325 326 326 326 327 327 327 327 328 329 328 329 329 328 329 329 329 329 327 326 324 318 320 312 310 309 320 326 330 331 331 332 331 320 312 310 308 310 308 308 308 310 308 309 307 307 308 308 305 301 300 298 299 300 303 302 302 300 301 302 302 302 298 299 299 301 298 301 302 301 304 305 305 306 307 307 307 306 306
322 322 323 323 324 324 324 324 325 325 326 326 326 326 326 327 327 328 328 328 328 328 329 328 328 329 329 326 325 323 323 316 314 307 310 322 328 330 330 330 329 326 311 309 309 307 307 306 306 308 309 306 307 305 307 305 307 304 303 300 300 303 301 300 301 301 301 301 301 301 301 298 300 299 300 298 299 301 301 301 302 302 303 304 306 306 307 306
322 322 322 323 323 324 324 324 324 324 325 325 326 326 326 326 327 328 328 328 328 328 328 329 328 328 327 325 325 324 322 316 306 308 313 326 327 330 328 330 325 313 312 308 308 308 304 307 308 308 308 306 306 305 304 304 304 303 301 300 301 300 300 301 301 302 301 300 300 300 301 299 300 298 299 299 298 301 302 304 301 301 301 302 304 305 304 305
322 322 322 322 323 324 324 323 324 324 324 324 325 326 327 326 327 328 328 328 328 328 328 328 328 328 326 325 323 319 320 307 304 310 315 323 327 327 328 324 319 310 309 305 305 308 308 309 307 307 306 304 305 304 302 302 301 302 301 303 302 299 300 301 301 300 300 297 298 299 298 299 300 300 298 299 297 299 302 303 303 301 302 302 302 303 304 304
321 321 322 322 322 322 322 323 324 323 324 324 325 326 326 327 327 327 327 327 327 328 328 328 328 326 326 322 320 320 314 297 307 312 321 322 325 324 326 318 317 308 308 308 307 307 308 308 308 306 304 303 301 302 302 300 300 299 302 300 301 301 299 300 300 299 298 299 298 298 299 298 299 299 300 299 299 302 305 304 302 302 303 302 302 304 304 304
321 321 321 321 321 321 321 322 322 322 322 324 325 326 327 328 328 326 326 326 327 327 328 328 327 326 323 317 313 317 309 306 313 315 318 320 322 319 321 313 315 313 309 310 309 308 306 307 306 302 302 302 300 300 301 299 300 299 300 300 300 300 299 300 300 298 298 297 298 300 299 297 299 297 297 297 302 303 304 303 302 303 305 305 303 303 303 302
321 320 320 319 319 320 320 321 322 322 323 325 325 326 327 328 327 326 325 326 327 327 328 327 326 324 322 319 318 310 310 306 310 313 314 318 311 310 313 315 309 317 309 304 306 308 304 305 304 301 303 301 301 300 300 299 298 299 299 299 299 298 298 299 299 298 298 297 299 297 296 299 299 297 298 299 302 302 302 302 303 304 304 303 302 301 300 300
320 320 319 318 318 317 320 321 320 321 323 325 325 326 327 328 325 325 325 326 327 327 327 327 324 322 318 323 314 309 304 312 309 308 313 311 306 308 315 311 309 309 306 306 305 308 308 305 303 303 300 301 300 299 299 298 298 299 300 298 299 299 299 299 298 297 297 298 296 296 299 301 297 298 296 301 300 301 302 304 302 303 302 301 300 299 299 299
320 319 319 318 317 317 319 319 320 321 323 325 325 326 328 327 325 324 325 326 327 327 327 326 322 318 323 321 313 304 308 307 308 308 307 307 307 311 312 312 309 309 308 307 308 308 306 305 305 305 305 301 299 299 298 298 299 297 298 299 298 299 298 298 298 298 297 297 296 298 298 299 298 297 297 300 300 301 304 302 302 301 299 298 298 298 299 298
319 319 319 319 317 318 318 319 319 321 323 324 326 327 325 325 324 324 325 327 327 327 327 324 320 321 319 313 308 303 313 312 311 311 308 308 312 310 310 310 308 309 307 308 308 305 305 306 307 304 304 300 298 299 297 299 297 297 296 297 298 299 298 298 297 297 299 296 296 298 297 298 297 297 298 300 301 303 303 300 300 298 297 297 297 297 298 297
319 319 319 319 318 318 319 319 320 321 322 324 325 324 323 323 323 324 325 326 327 326 325 323 317 315 314 311 306 307 310 309 309 311 310 312 310 310 310 306 307 311 308 307 308 308 308 308 308 302 300 301 299 299 297 298 297 296 295 295 298 300 296 298 297 298 298 296 295 297 295 295 296 296 300 300 302 303 302 299 298 297 296 296 296 296 296 296
318 318 318 318 318 317 317 318 319 321 322 324 323 322 322 322 322 324 326 327 326 325 322 320 316 321 316 306 307 311 308 308 308 311 311 311 310 307 307 308 308 307 309 308 308 309 307 306 305 302 303 301 299 297 297 297 296 295 295 295 297 297 297 295 299 298 298 296 296 296 290 294 296 298 300 301 302 302 300 297 296 296 295 295 295 295 296 296
318 317 317 317 317 317 317 318 319 321 322 323 324 324 322 322 323 325 326 326 325 324 320 318 321 319 311 304 309 311 307 309 308 314 310 312 310 312 310 310 309 308 311 308 307 307 307 303 306 302 302 300 299 302 297 297 297 296 295 295 294 293 294 300 297 298 296 295 297 300 290 294 297 299 300 301 301 300 297 296 294 294 294 294 294 294 295 295
317 317 317 317 317 317 317 317 319 321 322 323 323 322 321 321 323 325 326 324 325 321 320 318 321 315 307 305 311 312 315 310 313 311 309 309 309 312 310 308 308 306 304 307 309 305 303 305 304 301 300 297 298 297 297 296 296 296 294 293 297 292 294 298 298 296 294 296 299 297 293 293 296 298 301 302 301 299 295 294 293 293 293 293 293 293 294 294
317 316 316 316 317 317 316 316 318 321 321 321 321 320 320 321 322 325 326 324 321 319 320 321 318 313 307 303 308 318 314 310 310 311 309 309 310 309 309 305 307 307 305 304 303 303 304 306 300 298 298 300 298 297 297 298 297 296 293 292 292 293 293 294 295 296 296 296 297 295 290 294 295 299 300 301 299 297 293 292 292 292 292 292 292 293 293 293
316 316 316 316 316 316 316 316 318 320 320 319 320 320 320 321 320 324 318 316 316 316 319 313 311 308 304 308 310 308 307 310 311 313 312 307 306 307 306 308 304 304 305 303 304 304 304 302 296 299 299 297 297 299 293 292 292 294 296 291 293 290 291 291 296 294 296 295 292 296 292 294 296 298 299 300 298 295 292 291 291 291 291 292 292 292 292 292
316 316 316 316 316 316 316 316 319 320 319 319 319 320 321 321 317 325 318 317 314 315 313 313 315 309 302 311 303 305 308 307 313 310 309 307 304 305 305 304 303 302 305 303 305 303 302 301 300 297 299 298 297 295 291 287 290 290 291 290 291 292 291 290 291 295 294 294 292 294 294 293 295 297 298 297 295 293 291 290 290 290 291 291 291 291 291 291
316 316 315 316 315 315 315 317 319 320 319 319 321 321 323 320 315 314 310 312 312 311 307 305 305 301 298 303 307 308 309 308 308 307 306 308 308 303 304 303 305 302 301 302 301 301 301 302 302 298 294 293 293 293 292 293 292 291 291 290 290 289 291 291 294 295 293 291 291 292 291 292 294 295 296 295 294 292 291 291 290 290 290 290 290 291 291 291
315 315 315 315 315 314 316 317 319 318 318 317 319 318 320 308 314 306 309 309 303 303 303 303 302 302 305 305 307 310 309 307 305 306 307 306 306 304 300 301 306 304 300 297 299 298 298 294 291 291 293 292 294 293 293 293 292 291 291 291 290 291 292 294 293 294 294 290 291 291 292 292 293 294 294 294 293 292 290 289 289 289 289 290 290 290 290 291
314 315 314 314 314 314 316 318 318 317 317 318 315 309 298 300 302 299 299 303 302 303 302 305 303 303 304 304 308 306 303 304 302 305 307 304 303 302 300 302 300 298 297 294 297 297 296 292 293 295 293 292 293 292 291 291 290 290 291 291 290 292 290 292 292 293 294 289 289 292 291 291 292 293 293 294 292 289 289 288 288 289 289 289 289 290 290 291
314 314 314 314 314 315 316 318 318 315 315 317 314 304 303 302 302 301 302 302 305 303 301 303 300 303 306 305 306 303 303 302 303 305 309 306 303 301 299 300 296 294 298 298 298 295 293 290 294 293 292 291 290 290 290 291 291 293 291 291 290 291 291 293 292 293 292 290 288 291 289 290 292 292 292 292 290 289 289 289 288 288 288 288 289 289 290 290
313 314 313 313 314 315 316 317 316 315 316 314 309 307 307 309 308 306 308 301 300 304 302 304 305 305 305 304 303 302 300 298 297 302 302 304 302 300 300 296 296 295 296 294 292 291 288 293 291 292 291 290 290 289 290 291 293 291 291 289 288 291 288 286 292 292 291 289 288 290 288 289 291 294 291 291 290 290 290 290 290 290 288 288 288 289 289 289
313 313 312 313 314 315 316 316 314 315 311 311 309 308 310 308 307 308 305 301 300 303 303 304 304 306 306 303 303 302 300 299 297 298 305 303 298 297 299 296 294 294 293 291 292 290 288 291 290 290 291 290 291 292 291 292 290 293 291 290 289 288 288 287 287 289 290 292 290 289 287 287 289 289 289 290 292 291 290 289 289 290 290 290 291 290 291 290
312 312 312 313 314 315 315 314 313 309 309 311 307 310 309 307 307 308 304 300 298 301 304 305 305 307 304 306 305 301 299 297 301 300 302 301 298 297 296 294 294 292 293 290 290 290 291 290 290 291 292 292 292 291 292 291 289 291 289 288 288 289 287 287 289 287 286 286 287 286 279 281 288 288 289 290 289 287 288 287 287 288 288 289 288 289 290 291
312 311 312 313 314 314 313 308 309 310 308 307 310 311 308 306 306 307 301 296 296 299 303 300 309 302 309 302 305 301 299 297 298 301 301 302 298 296 294 294 291 291 291 290 291 290 289 290 291 292 291 292 292 290 292 291 289 287 288 288 289 289 288 288 287 286 282 280 287 288 278 276 286 287 288 287 286 285 286 286 286 287 287 288 288 288 289 289
311 311 312 313 313 313 309 303 310 309 305 309 310 312 309 308 306 308 298 297 293 301 299 302 303 302 307 301 300 300 295 296 299 299 298 300 296 301 292 292 292 292 292 293 288 288 289 290 290 292 291 290 290 289 291 290 289 286 289 289 289 288 286 286 286 286 284 289 289 287 285 279 279 286 288 287 284 283 284 284 285 286 286 287 287 288 288 288
311 311 312 312 313 312 305 311 311 307 300 310 312 310 308 307 307 305 299 288 289 301 298 300 302 308 305 300 300 297 296 296 294 295 296 298 299 296 294 292 291 290 291 289 284 291 289 290 289 290 289 289 289 290 290 290 289 289 289 289 288 287 287 287 287 285 285 283 279 285 287 280 281 286 288 287 283 283 282 283 284 285 286 287 287 287 287 288
310 311 311 312 311 312 314 312 309 308 311 311 309 309 308 307 306 302 295 286 299 297 305 298 308 303 300 301 297 293 296 297 295 295 298 295 300 295 293 291 290 291 288 290 288 290 290 289 291 290 289 288 290 289 288 290 288 290 289 289 289 289 289 288 285 283 283 280 276 281 285 279 279 285 284 284 282 280 281 283 284 285 286 286 286 287 287 287
310 311 311 310 310 311 312 311 309 310 311 310 309 307 308 305 301 296 290 285 300 294 299 300 302 298 297 297 297 294 296 294 293 294 295 293 296 299 292 293 292 291 291 289 290 291 289 291 291 290 290 290 289 288 289 288 286 287 288 289 287 287 286 286 285 283 280 276 279 283 283 279 272 280 280 281 280 280 281 283 284 285 286 286 286 286 286 286
310 311 310 309 309 308 306 302 309 311 310 308 308 306 305 303 297 292 284 296 298 299 298 299 296 298 294 295 297 294 294 291 294 292 293 295 293 295 294 291 295 290 287 289 287 290 290 291 291 291 291 290 291 289 289 289 289 287 286 284 284 283 283 281 281 282 274 274 280 282 279 279 270 276 281 282 283 282 282 281 282 283 284 284 285 285 286 287
310 311 309 309 308 307 299 300 308 310 309 308 306 299 301 295 297 288 289 300 293 297 295 295 294 294 292 293 292 293 293 292 291 291 290 290 290 291 291 289 289 285 286 285 287 289 288 288 289 290 291 290 291 289 290 289 288 288 286 284 278 275 277 274 278 273 276 275 280 280 279 275 277 281 282 282 282 283 284 284 283 283 283 284 285 286 286 287
310 309 308 307 308 308 308 310 311 310 309 307 303 302 298 292 284 295 293 295 294 298 295 296 294 294 293 292 294 290 289 291 291 289 289 287 288 288 287 288 288 286 284 286 285 285 286 286 287 289 291 290 291 286 286 285 285 285 283 280 276 272 271 269 273 275 274 279 279 278 279 274 279 282 285 282 283 284 284 285 285 285 284 284 285 285 286 286
309 308 309 306 307 309 310 310 310 310 308 306 304 298 296 287 287 296 293 296 297 293 295 293 291 290 291 293 294 289 291 291 289 288 288 287 287 287 288 287 287 288 285 286 284 285 281 282 285 288 286 289 288 286 285 284 283 284 286 281 278 275 272 267 271 269 270 272 275 280 274 274 275 281 285 283 284 285 285 285 286 286 285 285 285 286 286 285
308 306 306 307 307 309 310 310 311 310 306 301 298 295 289 289 291 292 291 295 294 292 293 291 292 290 292 289 288 287 290 290 288 287 288 287 286 287 287 288 287 289 289 284 286 282 282 284 285 287 287 287 286 287 287 285 284 282 283 285 280 278 282 273 275 272 271 271 271 275 274 279 278 285 285 283 285 284 285 285 285 284 284 285 284 284 284 285
309 308 307 307 308 310 309 310 310 309 304 299 293 289 288 292 291 293 294 295 293 294 293 292 292 290 291 290 288 287 291 288 288 287 286 286 288 287 288 288 287 290 288 285 286 282 282 281 285 285 286 283 282 285 286 286 277 282 281 277 279 283 280 276 275 276 272 273 271 278 277 280 284 283 281 283 283 283 283 283 283 282 283 283 283 283 284 284
307 306 304 306 306 310 310 311 310 308 301 298 291 286 293 290 297 298 299 295 294 294 292 289 292 290 290 289 288 287 288 287 286 286 285 287 285 287 285 286 287 286 287 287 286 288 281 282 285 286 283 284 285 284 284 284 286 282 277 279 283 285 280 276 269 272 271 268 269 276 272 274 275 271 281 281 280 281 281 281 282 282 282 282 282 283 283 284
307 305 305 305 309 311 311 310 309 305 305 295 287 291 293 292 294 296 296 292 292 293 292 290 293 293 290 289 289 287 288 287 287 285 285 286 286 289 287 285 287 286 286 286 284 284 285 279 284 285 283 283 285 286 283 284 286 281 279 286 277 272 272 276 271 265 266 266 268 271 274 274 276 275 279 278 278 279 280 281 280 280 281 281 282 282 283 284
304 299 300 304 309 311 310 311 308 303 297 290 288 286 294 293 293 293 295 297 296 294 290 292 292 293 291 288 287 286 286 286 286 286 284 286 283 288 287 287 285 285 283 286 285 285 286 278 280 282 283 283 284 282 277 279 283 282 283 281 284 278 275 270 274 271 271 266 267 268 272 268 277 277 277 278 279 279 279 279 279 280 281 281 281 282 282 283
301 294 294 307 310 310 310 309 305 302 298 286 289 289 295 292 293 294 294 296 294 292 292 292 293 291 288 290 288 289 287 286 285 286 285 288 286 288 286 286 286 283 284 284 284 288 282 286 276 282 283 281 277 281 279 280 277 277 278 277 278 278 278 276 275 271 269 267 266 266 265 272 278 279 279 279 280 280 280 279 280 280 281 282 282 282 282 283
301 294 294 307 310 311 309 306 299 294 292 295 292 292 292 293 295 293 295 294 296 299 294 293 291 289 292 288 288 288 286 284 285 284 285 285 286 283 287 286 285 282 284 282 282 283 280 282 277 279 278 278 280 282 281 281 281 279 279 277 278 274 271 269 267 276 267 269 266 266 264 272 279 281 280 280 281 281 281 280 280 280 281 281 282 282 283 283
298 295 295 307 309 310 305 296 296 295 295 291 290 293 292 298 297 297 295 295 295 295 295 293 292 292 290 288 291 286 285 284 284 284 286 285 287 287 283 284 284 284 283 281 281 284 282 282 279 276 279 279 278 279 281 282 282 281 280 278 279 277 276 271 266 269 270 272 271 269 266 268 279 281 281 281 281 281 281 281 280 281 281 281 282 283 283 284
296 298 303 306 308 307 300 294 297 293 293 295 295 294 297 297 296 298 295 294 293 295 293 291 292 290 291 290 289 285 286 285 284 284 284 286 284 283 283 282 283 282 281 279 279 281 283 276 275 278 279 277 279 280 281 281 281 278 279 278 278 275 277 273 272 273 269 270 268 268 266 270 279 281 281 282 282 282 282 281 280 280 281 281 282 282 283 283
296 298 298 306 308 306 296 289 289 291 293 295 294 295 297 296 296 293 294 295 294 292 292 292 291 293 291 290 288 286 287 283 287 285 284 283 282 281 281 281 282 281 281 281 279 284 277 280 276 273 274 273 273 276 277 279 278 277 277 279 278 278 277 276 276 275 267 269 269 267 261 268 279 281 282 281 281 280 280 281 281 280 281 281 282 282 283 284
299 300 301 302 304 302 294 297 295 295 293 292 293 292 292 293 296 297 296 294 296 293 291 290 292 292 290 287 287 287 288 290 286 285 284 283 281 281 280 280 281 280 281 282 283 285 279 278 276 271 269 268 268 269 271 271 274 276 278 276 278 275 275 273 269 271 267 270 271 267 267 274 279 281 280 280 280 279 280 281 281 281 281 281 281 282 282 281
295 292 296 294 300 299 298 296 294 294 293 292 290 293 294 292 293 295 297 296 295 293 292 291 285 288 286 284 284 283 285 286 285 283 281 281 279 281 281 280 279 281 282 285 285 284 277 278 277 276 274 273 275 276 277 278 276 272 275 276 275 276 276 275 273 269 266 269 268 270 271 272 274 276 277 278 279 278 278 279 279 280 281 281 282 282 281 281
298 294 289 287 296 296 294 297 294 292 291 296 290 294 291 292 294 290 295 290 294 292 288 288 287 286 285 285 285 283 284 283 283 280 281 281 281 280 280 282 280 281 283 284 283 280 277 274 276 277 277 277 277 276 277 277 274 275 274 274 276 275 275 272 270 268 274 269 265 273 274 271 273 276 277 277 278 278 279 279 279 280 281 281 281 281 281 280
291 295 298 300 296 292 290 290 294 292 294 294 292 295 291 291 291 288 291 293 287 291 288 287 285 289 288 285 285 281 281 282 281 281 281 281 278 280 278 280 280 283 283 282 285 280 276 273 276 277 275 277 277 277 277 275 276 275 275 275 274 276 274 270 271 274 273 269 267 272 274 272 274 276 277 278 278 278 278 279 280 281 282 281 280 279 279 279
300 293 294 299 296 300 296 295 294 293 292 293 291 293 290 289 289 292 290 286 287 287 290 286 286 285 287 287 285 283 282 279 280 280 279 279 280 278 278 278 281 282 283 280 280 282 277 275 275 276 274 275 276 276 277 276 275 275 275 275 276 275 275 275 273 274 274 272 273 274 274 273 276 277 278 279 280 280 280 281 281 281 280 279 279 278 278 277
293 295 291 294 294 291 293 295 293 292 290 292 288 290 291 290 289 291 287 288 284 286 290 287 288 286 286 286 285 284 285 286 284 277 281 280 279 280 278 280 277 281 281 278 278 280 276 273 276 275 273 273 276 277 277 276 275 273 275 275 275 275 275 275 274 274 275 274 274 274 273 273 277 280 279 280 280 281 280 280 280 280 279 278 278 277 277 276
304 304 301 292 290 292 292 292 292 292 291 292 289 291 291 290 290 292 291 293 291 288 285 286 288 286 285 285 285 285 288 286 284 284 283 283 279 281 278 278 281 278 278 277 278 277 279 274 276 274 271 271 275 274 275 275 274 273 272 273 274 274 272 274 273 275 273 271 273 273 271 272 277 280 279 280 279 279 278 279 279 279 278 278 277 276 275 275
300 299 300 300 294 297 292 292 292 292 288 293 292 291 291 291 293 294 288 292 291 293 290 289 289 285 282 283 283 285 286 285 285 285 286 284 285 284 284 282 282 280 277 277 279 276 278 275 272 273 270 271 273 273 272 272 271 268 270 273 275 275 276 276 276 276 275 275 271 269 271 276 277 279 277 277 278 278 279 279 278 278 278 278 277 275 274 274
Wind_Speed
19 20 19 19 19 18 17 17 17 16 16 15 15 15 15 15 15 15 15 15 15 13 11 11 11 10 8 8 8 7 8 0 9 12 16 4 3 9 12 12 13 14 13 7 5 4 1 4 7 5 1 1 3 1 1 1 3 3 2 1 2 2 2 3 0 1 2 7 12 10 2 8 10 4 5 6 8 10 9 10 8 9 12 12 12 9 10 11
19 20 20 20 18 18 17 17 18 17 16 15 14 14 14 15 15 14 14 15 14 13 12 11 10 9 8 8 6 3 2 1 11 15 9 5 8 10 11 12 12 10 12 3 9 7 6 7 7 5 4 1 1 1 2 2 2 2 1 2 4 2 4 1 3 1 4 9 14 13 3 4 6 6 5 8 12 8 11 8 5 8 10 6 10 6 7 10
19 20 20 19 19 18 18 18 19 18 17 15 14 13 14 13 13 14 14 15 15 13 11 11 10 8 7 9 7 2 3 1 3 12 7 8 11 12 11 11 10 6 4 4 2 4 5 2 2 5 2 2 4 1 2 2 3 2 3 3 3 2 2 1 2 1 2 7 13 14 6 5 7 2 0 6 14 12 8 10 12 15 17 21 21 12 10 10
19 20 20 19 20 20 19 18 19 19 19 18 15 15 13 12 12 13 13 14 14 14 11 9 8 7 7 9 8 4 4 2 8 4 5 11 13 11 11 9 9 2 3 5 2 2 2 3 2 5 2 2 1 2 2 3 3 3 3 2 3 2 1 4 2 2 1 3 11 12 10 10 4 2 3 6 10 7 11 13 13 15 14 15 17 18 16 17
18 19 19 19 20 20 20 20 19 20 20 19 17 14 12 14 12 12 13 13 15 14 11 9 8 8 7 8 2 2 3 3 4 2 6 13 12 11 9 9 7 3 2 4 2 3 1 6 1 3 2 2 1 2 2 1 2 1 3 2 2 3 3 5 1 2 1 1 7 13 11 6 7 3 2 4 6 8 10 13 14 12 12 12 12 12 13 17
19 18 18 19 20 20 21 21 20 20 20 20 18 15 11 10 13 13 14 15 15 13 12 10 8 8 8 2 2 4 4 1 3 4 9 12 12 11 6 8 5 2 2 3 3 3 3 3 4 2 1 2 1 2 3 1 1 3 3 2 1 2 4 3 2 2 2 5 9 11 4 6 6 5 4 5 7 8 10 12 10 9 9 7 8 5 14 16
16 16 17 18 19 20 21 21 21 22 21 19 19 15 13 11 12 13 14 15 14 12 11 9 8 8 7 3 3 3 9 5 3 4 9 12 10 9 5 3 3 3 0 2 6 4 4 4 2 2 1 2 3 2 1 2 1 3 3 1 1 6 2 2 4 4 4 6 8 6 10 8 8 9 2 7 9 7 8 9 7 8 9 8 14 17 16 17
15 15 16 17 17 18 20 21 22 21 20 18 19 17 14 11 11 14 14 14 13 11 10 8 7 7 3 2 1 5 4 5 7 2 10 10 6 9 3 2 9 2 8 6 5 6 3 5 5 1 2 4 2 2 2 5 4 4 4 1 0 3 3 2 3 6 6 8 8 7 8 11 3 3 4 4 7 9 6 2 7 10 11 13 15 17 17 19
15 15 16 17 18 19 17 20 22 23 21 21 19 16 15 12 16 15 14 13 11 10 9 7 7 5 3 2 3 2 6 3 2 8 8 7 6 6 7 5 8 6 3 2 3 2 4 2 1 1 4 2 2 4 1 5 3 3 5 5 9 5 3 2 4 5 4 2 0 4 9 10 7 4 4 4 7 5 2 10 11 10 14 14 16 18 18 18
16 16 17 17 18 18 18 20 21 22 22 22 20 17 12 13 16 17 14 12 9 9 8 6 9 3 1 2 1 3 1 0 2 4 6 4 3 3 9 5 6 4 3 5 3 7 5 1 3 1 3 1 2 2 0 4 3 1 8 8 11 9 6 2 5 4 4 1 4 4 15 9 3 4 5 8 6 4 13 12 13 14 15 17 16 16 16 18
16 17 17 17 19 17 19 20 21 22 22 21 21 17 16 16 16 16 13 9 7 8 6 6 8 1 4 0 3 6 2 1 1 3 7 4 5 7 7 5 3 2 2 2 4 2 1 2 2 2 2 2 3 2 4 1 2 3 6 11 12 6 4 6 4 3 4 4 6 3 13 10 4 3 5 8 7 9 13 14 14 15 15 15 17 16 15 16
16 17 18 18 18 18 20 21 21 22 21 21 19 21 19 16 15 15 11 8 6 6 5 5 5 2 3 12 9 4 1 1 0 2 5 5 5 3 2 3 3 2 2 2 3 1 2 1 4 2 3 0 3 1 1 2 3 3 4 6 11 8 10 5 6 4 3 5 5 5 9 4 2 3 9 8 8 12 9 14 13 14 14 14 14 14 14 14
15 17 18 18 18 19 20 21 22 21 20 19 21 24 21 15 14 12 9 6 7 4 4 6 4 1 1 7 3 1 0 2 2 2 3 5 5 3 3 3 3 3 2 1 1 0 1 2 2 2 1 2 3 4 2 2 0 1 3 2 4 12 1 8 7 5 2 7 6 4 7 8 3 1 5 6 8 7 9 13 12 11 12 12 13 12 13 15
14 15 17 18 18 17 19 21 22 21 20 20 21 23 22 15 12 9 6 4 4 4 3 5 2 2 3 4 2 1 3 1 4 5 11 4 3 2 2 3 2 3 3 3 2 1 0 2 2 3 1 3 4 2 5 2 2 4 2 3 2 4 6 6 8 5 5 7 1 8 7 6 5 10 5 0 3 8 13 12 12 12 11 11 11 12 12 14
14 14 16 18 17 17 19 21 21 21 21 20 19 23 21 15 11 7 4 4 7 2 3 5 3 1 4 3 2 1 2 2 2 4 4 8 7 1 2 2 4 5 3 3 2 1 0 2 2 1 1 2 5 4 4 2 1 1 3 2 3 5 8 13 8 8 7 4 4 8 2 4 15 6 9 9 2 7 15 13 13 12 11 11 11 12 13 13
14 14 16 17 18 18 19 20 21 19 21 19 20 25 20 12 8 4 6 6 3 5 3 1 5 2 7 4 3 3 1 3 5 3 1 3 4 5 5 1 0 3 2 2 0 1 1 3 4 2 4 4 5 4 6 3 2 3 5 7 6 6 9 13 4 5 8 11 1 6 5 9 7 9 14 11 10 18 14 13 11 12 12 11 11 10 11 13
14 15 15 16 17 18 19 20 20 22 22 22 23 20 19 8 4 5 6 5 4 0 2 2 1 2 2 2 2 1 2 1 1 1 2 3 3 4 5 3 2 2 2 2 2 2 4 1 1 2 1 3 2 5 7 3 6 4 5 6 7 9 11 9 2 5 11 8 7 2 1 7 13 11 13 8 14 16 15 12 12 10 10 11 10 11 12 14
14 15 16 17 17 17 18 20 21 22 22 23 20 15 14 10 2 4 2 4 2 3 5 1 2 1 3 2 1 3 1 4 4 4 2 2 3 3 3 2 2 1 1 2 1 2 4 1 1 4 2 2 7 8 6 8 6 9 9 8 7 5 8 13 12 6 13 8 10 8 1 2 11 13 12 11 18 16 14 11 11 11 11 11 11 11 13 14
14 15 17 17 17 17 18 20 20 20 21 22 17 10 5 4 1 3 5 6 1 4 2 3 5 3 1 2 3 3 1 1 2 3 4 3 2 0 1 1 1 4 2 3 2 7 3 2 3 1 5 9 9 6 3 5 5 8 9 8 10 10 8 12 12 7 12 17 12 7 7 11 13 10 11 16 15 16 12 10 10 10 10 11 11 11 11 12
13 15 17 18 17 17 17 19 18 19 18 12 10 6 3 6 3 2 6 4 7 2 3 5 2 3 6 2 4 5 2 3 1 2 2 1 2 2 0 2 3 2 5 4 8 3 4 6 3 4 4 7 6 3 5 6 5 7 5 6 10 11 10 7 10 7 12 16 7 13 12 10 10 14 10 15 15 13 12 12 10 10 9 8 8 9 10 11
13 14 16 17 16 16 17 17 16 17 13 5 5 5 5 4 6 8 9 6 0 2 2 1 1 4 4 3 3 7 1 1 1 4 5 2 2 3 2 3 4 7 4 2 3 1 2 4 0 0 3 4 5 3 2 4 4 4 8 8 10 9 11 10 14 5 9 12 15 15 18 8 9 16 12 12 14 13 11 11 11 10 8 8 8 9 9 8
12 14 16 17 16 16 17 15 13 17 4 6 9 7 4 3 2 2 1 7 1 2 0 2 1 4 2 2 2 1 2 2 3 5 1 2 2 3 6 4 3 6 4 4 3 3 5 4 3 2 2 3 1 1 1 3 7 5 5 7 8 7 12 10 1 3 9 10 15 17 18 8 12 5 15 12 13 10 9 10 9 10 11 10 10 10 9 11
12 13 15 16 15 15 16 12 7 13 4 6 6 6 3 2 2 1 2 2 7 1 1 1 1 4 2 2 1 1 2 1 2 6 8 8 1 5 2 3 2 0 1 3 4 4 4 1 2 2 2 3 2 2 2 5 5 4 6 6 7 8 10 9 1 7 14 7 11 12 15 10 3 13 13 10 11 10 8 7 6 8 11 10 9 8 10 13
11 12 14 15 15 15 14 9 5 5 9 9 9 5 2 1 1 3 2 2 5 4 1 1 2 2 2 3 1 1 2 1 1 5 5 5 4 2 1 3 2 1 1 2 2 3 6 6 3 4 3 2 5 2 2 4 7 1 1 3 5 8 7 5 14 18 14 5 6 12 14 4 11 5 7 8 8 8 5 7 11 10 9 8 9 8 10 11
10 12 12 14 15 14 12 5 5 4 2 5 5 1 1 2 1 1 1 3 2 3 2 1 2 2 2 3 2 2 1 2 2 3 4 5 2 2 3 0 3 1 2 2 1 4 6 2 2 1 1 3 3 6 2 3 7 4 4 3 4 6 10 12 14 17 14 8 6 16 15 4 4 2 8 8 5 7 7 12 13 12 10 10 11 11 12 11
9 10 12 12 14 16 9 1 2 2 2 4 3 3 1 2 1 1 2 2 3 2 1 3 2 2 1 2 3 1 3 1 1 2 2 4 2 1 2 1 1 3 3 2 4 4 3 1 1 1 1 2 3 4 2 2 4 6 1 2 4 6 8 12 14 11 12 12 6 11 7 14 7 2 10 7 7 6 6 8 10 11 10 11 11 12 13 15
8 9 10 12 13 14 1 2 2 3 1 1 2 1 2 1 2 3 2 1 3 2 1 1 1 1 1 1 1 2 3 2 2 0 1 4 2 1 3 1 2 2 1 1 2 2 2 0 1 2 2 3 4 7 3 1 3 4 3 3 4 7 11 13 12 7 12 9 8 5 7 10 10 2 9 9 7 5 9 11 12 12 12 14 14 15 18 18
7 8 9 10 10 11 3 4 2 1 2 3 2 1 1 1 4 2 2 3 0 2 0 3 1 0 1 2 1 2 2 1 2 2 1 4 2 2 2 3 4 1 3 2 7 2 1 1 1 2 1 2 5 2 2 1 2 2 2 1 6 7 9 11 9 10 9 8 9 2 6 5 4 5 6 4 3 8 11 13 14 14 14 16 16 17 21 21
6 7 8 8 6 6 3 2 2 2 2 2 2 2 1 3 3 2 3 2 2 1 1 2 1 2 5 4 1 2 0 2 3 3 2 2 6 2 3 1 1 3 1 5 8 2 1 1 2 1 2 4 3 2 1 3 1 1 2 4 6 7 8 7 8 11 8 5 10 7 4 7 11 5 8 7 6 6 10 11 11 11 12 14 17 21 22 21
5 6 7 7 1 0 2 2 3 2 2 4 2 3 4 3 2 2 2 5 3 2 1 0 3 2 2 2 2 3 3 1 1 5 4 0 6 4 4 1 2 2 3 2 3 1 1 2 2 2 1 2 4 3 2 6 2 7 4 5 4 9 9 7 7 3 5 6 9 4 3 2 8 5 3 1 3 4 8 9 11 12 15 19 19 21 20 20
4 5 6 5 3 1 1 1 2 4 2 3 4 3 2 1 2 1 4 2 2 1 1 3 0 2 2 1 5 2 2 2 2 4 2 2 2 5 2 2 3 1 1 1 2 1 1 2 3 2 2 1 2 3 2 2 3 3 4 7 10 6 4 8 4 1 1 5 6 6 5 3 8 4 4 6 4 6 9 11 14 15 18 19 21 21 21 20
2 4 5 4 2 2 0 1 3 4 3 5 4 2 2 4 2 6 4 5 4 1 1 1 1 1 3 2 2 2 1 2 0 1 0 2 1 1 1 3 2 3 3 3 1 1 2 3 2 3 1 1 3 3 4 2 1 2 5 7 6 7 6 4 3 5 5 6 6 6 4 9 10 9 5 6 6 5 8 9 13 15 19 20 20 21 18 17
1 4 7 4 2 2 1 3 3 3 5 4 2 1 1 1 4 4 3 1 2 2 2 1 0 1 2 2 5 0 3 5 2 2 2 1 2 0 2 4 2 3 7 2 2 1 1 3 3 1 2 2 3 5 2 3 4 4 4 2 3 7 6 9 8 5 8 5 9 4 4 11 16 11 6 6 5 6 10 10 13 12 15 17 19 18 18 19
3 4 2 1 1 1 3 2 1 5 5 3 2 2 4 1 5 4 3 3 2 2 3 2 0 1 2 6 2 2 5 4 1 1 1 2 2 4 3 4 3 1 0 1 3 0 4 2 7 6 3 1 1 3 2 2 3 4 4 2 0 2 3 8 5 7 8 12 12 11 3 4 4 3 9 5 1 5 10 11 8 10 15 17 18 19 19 20
7 5 4 3 0 2 4 2 2 3 2 2 2 3 4 7 1 3 3 2 2 1 1 2 1 1 6 4 1 4 5 2 2 1 4 4 5 4 5 5 4 2 2 2 2 0 6 5 3 4 1 2 4 1 1 4 4 5 1 2 3 4 3 8 3 3 8 14 13 3 5 1 5 9 8 6 6 13 13 12 11 15 18 19 18 18 18 19
5 2 2 1 3 3 5 4 2 4 3 2 2 5 11 5 2 4 1 3 2 1 1 3 4 6 6 3 1 0 2 4 1 1 3 6 2 4 3 2 4 5 5 4 3 3 1 5 5 3 0 6 3 1 1 3 3 4 3 3 0 4 4 6 5 5 4 7 15 6 10 7 1 9 8 4 12 13 13 14 16 19 20 21 19 20 20 21
1 3 2 3 3 5 7 5 3 3 2 2 3 10 7 2 5 4 2 4 0 3 1 6 2 4 2 3 3 3 3 0 3 1 4 3 5 7 4 2 1 1 4 2 2 1 4 1 3 4 3 6 3 3 6 4 3 3 4 0 4 5 2 2 4 4 6 8 10 4 11 15 6 7 5 5 12 15 16 16 20 22 22 23 22 21 23 25
3 1 1 3 3 7 6 5 5 1 1 4 10 12 3 6 3 6 4 5 1 3 3 4 5 5 6 5 3 5 4 4 2 3 4 6 4 7 7 5 4 3 0 3 2 1 3 6 6 1 7 3 2 2 5 4 6 3 3 3 2 3 3 5 3 4 8 9 10 9 14 11 10 8 4 9 15 17 18 21 24 25 25 24 24 26 25 26
1 0 3 2 5 7 5 6 4 2 4 4 8 7 5 7 3 5 7 4 2 5 4 6 7 4 3 4 2 1 7 5 4 5 2 3 5 5 6 6 4 4 1 3 2 2 2 3 1 2 3 4 2 1 4 5 2 3 1 3 3 0 3 4 1 2 2 12 7 10 7 13 1 1 2 11 14 13 18 21 23 25 25 24 23 23 25 26
2 1 3 5 6 5 7 6 3 1 4 11 8 9 2 4 5 4 5 9 5 5 6 4 9 9 5 6 3 6 3 6 4 4 7 2 3 4 6 2 6 5 4 2 1 1 3 2 5 6 1 1 4 8 5 7 5 5 6 5 3 3 1 3 3 4 6 6 5 10 14 6 4 3 8 13 10 13 18 22 22 22 23 24 24 25 26 27
1 1 2 4 6 7 7 2 3 6 7 1 2 5 3 5 4 4 4 3 2 2 4 5 5 8 5 2 8 7 3 5 5 6 7 4 6 5 5 7 7 8 4 3 3 3 2 5 5 5 4 7 3 7 3 2 3 6 7 7 7 4 3 3 7 5 1 4 5 6 14 14 4 4 7 6 7 12 19 21 22 23 24 25 24 27 28 27
4 3 2 6 4 8 6 5 5 1 3 8 8 7 6 4 3 5 4 1 3 3 3 2 3 6 3 7 5 4 4 3 6 4 6 9 4 5 2 0 5 7 7 5 4 1 1 2 2 5 6 4 4 4 3 6 6 6 6 5 6 3 5 2 6 2 1 6 3 10 12 17 2 5 2 5 9 17 19 20 22 22 24 25 26 27 28 28
4 5 3 3 3 7 4 6 2 2 5 4 5 4 2 2 4 4 6 4 3 4 3 5 7 4 8 9 4 5 7 7 7 8 3 5 3 2 5 5 7 5 2 2 3 4 3 2 2 7 2 5 3 4 5 4 8 6 4 5 6 7 6 5 6 6 6 6 6 9 12 12 3 3 1 8 16 17 15 19 22 21 22 25 27 28 29 28
3 2 2 2 3 6 5 12 7 9 7 4 3 6 2 4 7 5 8 10 9 6 7 6 1 13 5 3 5 8 8 4 8 11 2 3 2 3 4 5 3 5 4 4 4 7 3 4 6 2 2 4 3 3 4 1 1 4 6 8 9 4 4 3 4 3 4 10 11 7 12 9 6 2 10 15 16 18 20 20 19 22 22 24 26 26 25 25
2 1 2 2 2 6 10 6 9 10 11 10 8 11 6 4 7 12 11 11 7 5 4 6 6 5 5 4 6 2 9 15 4 3 3 4 3 2 3 3 4 4 2 1 1 1 2 2 4 4 7 8 6 4 3 7 10 7 6 8 9 8 8 5 5 6 8 5 11 9 12 16 14 15 19 17 17 21 21 21 21 21 24 26 25 26 28 29
4 4 4 2 4 5 6 3 2 9 10 9 10 14 9 12 3 5 10 13 10 6 8 3 2 2 4 5 7 7 10 4 9 2 4 4 2 1 2 2 1 1 2 2 1 1 2 0 6 10 9 11 9 3 6 6 4 7 8 9 10 10 10 8 5 6 11 9 10 17 17 20 23 20 18 19 20 22 22 23 24 24 26 26 25 25 25 26
2 7 6 3 2 9 9 5 8 5 12 7 9 5 14 16 8 3 10 6 9 12 4 6 5 7 7 5 13 8 7 6 4 1 6 5 2 3 2 3 1 4 4 2 2 4 1 2 9 12 16 13 10 9 1 3 9 10 8 11 9 12 10 11 11 10 6 7 14 16 10 12 16 17 19 21 20 20 20 24 25 24 24 23 24 27 29 28
5 3 7 8 7 6 11 13 12 11 14 9 13 5 9 11 13 12 3 9 4 6 8 2 9 17 13 17 7 6 8 12 6 9 5 2 6 4 3 3 4 4 6 2 2 4 4 3 3 8 12 11 8 10 7 5 9 8 10 13 14 10 11 13 15 15 13 10 15 15 13 17 19 17 20 20 19 18 22 25 25 23 22 23 26 28 27 27
4 2 3 1 10 11 12 9 16 18 17 18 9 13 13 13 20 15 9 4 4 7 16 12 16 16 19 11 11 11 10 5 11 4 7 5 7 6 5 2 5 5 6 3 3 1 2 5 4 5 7 7 6 10 10 10 9 10 13 16 15 11 14 15 14 15 17 19 20 19 20 23 20 17 18 18 16 18 19 20 22 22 22 25 26 27 26 27
9 9 5 4 6 2 1 8 10 14 17 17 13 19 15 19 24 9 2 11 8 11 10 19 16 13 18 16 15 15 17 15 6 8 5 9 3 4 4 4 6 5 5 5 4 4 4 2 7 2 2 7 9 10 12 11 10 11 14 18 17 14 15 15 13 13 14 18 20 19 20 20 14 12 13 16 16 16 17 21 22 20 19 24 25 26 27 28
5 9 7 7 8 11 7 6 8 12 14 14 17 19 14 21 22 16 18 15 22 13 12 26 23 9 10 14 17 20 10 8 3 5 11 14 11 9 10 4 11 8 9 3 3 3 5 2 4 1 3 5 6 9 8 6 7 10 13 21 17 14 14 12 9 9 10 13 13 13 14 13 10 12 16 17 18 19 19 19 19 17 21 23 22 24 26 26
3 5 3 7 12 11 13 10 10 7 18 18 16 22 16 22 20 12 14 11 13 13 12 17 13 11 6 10 20 18 5 5 6 4 5 1 4 5 2 6 12 11 8 7 4 5 5 4 2 2 3 5 4 5 2 3 6 9 14 20 17 13 12 9 10 10 13 14 11 10 12 12 14 15 17 20 21 21 17 16 18 20 20 20 22 24 25 25
Wind_Direction
358 355 353 353 354 352 347 345 346 347 346 344 348 347 342 339 332 324 317 320 318 318 323 327 324 322 324 331 340 354 314 326 68 45 49 45 314 306 309 316 318 322 329 316 353 18 72 23 24 358 214 253 12 231 1 16 357 269 233 249 193 44 173 126 185 331 9 311 328 325 60 331 327 12 352 284 241 223 277 270 272 232 237 249 271 286 314 329
358 354 353 352 349 345 345 345 344 342 344 344 345 344 339 332 326 319 318 320 319 322 326 325 324 318 316 320 335 357 302 15 67 61 53 332 324 321 318 316 323 336 316 331 22 16 0 18 9 340 5 344 240 62 240 99 292 270 174 238 8 163 61 281 55 57 321 331 318 314 21 340 327 349 338 316 306 317 302 332 339 339 346 308 243 273 341 328
356 353 351 347 342 343 347 346 343 340 340 342 341 337 332 325 323 321 319 318 319 324 328 319 320 320 310 315 326 195 231 178 33 35 13 347 323 320 324 326 333 350 9 351 54 41 33 41 324 309 43 298 42 26 278 64 274 92 272 303 62 78 61 243 233 15 277 315 303 315 336 320 322 358 305 285 309 307 332 12 2 359 351 346 343 348 340 324
355 352 349 344 341 343 342 345 343 342 340 342 339 332 326 326 324 321 321 315 320 325 328 319 309 314 314 314 301 217 219 119 53 341 29 342 326 327 332 340 345 357 186 71 96 86 188 196 358 21 329 295 94 202 270 29 285 113 240 303 66 119 276 119 218 270 300 263 292 297 301 305 57 49 279 297 311 350 16 18 7 355 348 340 337 339 346 349
353 350 345 342 343 342 344 343 343 344 340 336 339 335 325 328 320 322 324 321 327 327 330 322 327 315 322 332 349 232 161 237 52 285 357 333 328 334 343 353 2 4 98 143 213 72 17 28 337 52 17 318 39 201 65 94 33 195 266 8 96 135 294 109 151 69 139 222 284 285 294 324 323 246 240 297 313 344 3 359 4 356 343 334 331 336 343 358
351 345 344 344 344 344 342 341 343 341 338 334 330 335 321 308 330 330 330 330 328 331 332 328 331 333 351 19 122 240 253 34 345 352 332 327 327 341 348 1 359 314 291 26 36 351 358 353 323 350 348 253 31 329 69 48 288 294 171 238 162 153 297 110 149 150 233 287 285 292 5 328 294 298 310 282 270 318 341 8 6 344 336 323 305 344 11 16
344 343 345 345 344 344 342 342 342 340 338 334 332 327 324 321 322 333 333 332 332 331 332 329 334 345 13 100 251 64 69 96 309 349 339 325 328 338 330 350 340 9 93 11 12 360 7 339 331 54 250 209 132 298 41 303 220 249 299 135 190 155 235 155 281 142 236 254 265 308 317 285 278 313 67 298 286 295 352 16 352 346 344 358 12 25 28 32
341 342 345 345 342 341 339 340 339 334 332 331 329 327 326 321 327 337 338 333 332 334 323 334 337 343 57 103 278 63 60 30 357 6 322 322 335 336 345 348 10 345 48 45 346 1 313 17 2 245 225 334 62 265 46 282 190 210 265 355 326 152 184 217 254 251 252 249 271 307 298 296 356 325 278 289 39 37 34 17 21 8 16 27 34 36 36 33
340 341 344 345 344 344 338 340 337 334 330 329 328 325 327 332 340 339 341 336 335 332 330 334 328 335 161 77 89 118 42 357 358 315 320 335 338 357 18 33 350 47 114 53 8 322 282 53 286 271 351 268 134 280 177 294 173 221 283 323 296 304 277 276 260 234 213 274 283 263 293 318 96 218 206 71 60 9 287 33 35 35 40 42 44 40 37 34
341 343 342 342 343 343 342 340 336 333 329 328 325 326 325 334 341 339 344 337 340 337 339 351 332 302 118 84 268 111 63 58 307 314 326 329 322 16 46 39 3 26 21 357 351 12 33 357 354 35 266 214 185 279 104 251 15 338 303 303 297 293 294 153 197 153 157 218 184 338 311 330 10 298 108 108 49 351 1 45 44 52 54 50 46 40 34 34
341 342 339 339 340 341 345 341 336 333 330 325 322 320 337 340 343 339 343 339 344 345 1 358 338 289 48 34 111 79 158 217 69 357 351 338 24 35 22 358 346 56 30 31 40 14 17 252 157 142 216 28 194 199 214 35 22 300 316 305 278 276 198 161 178 103 163 119 228 270 299 319 311 171 38 45 15 359 1 60 59 58 53 47 44 40 33 31
338 339 338 337 337 340 343 340 337 332 329 326 319 324 334 343 344 339 343 341 356 6 15 360 359 89 39 67 61 82 324 276 18 40 11 16 65 22 321 345 338 64 311 60 47 59 273 66 190 253 349 192 290 156 196 86 292 341 345 303 312 297 152 167 61 71 220 112 214 245 293 275 252 60 60 47 358 352 10 73 65 57 50 45 41 39 36 30
336 337 337 336 338 342 344 341 337 334 327 322 322 326 330 349 342 343 339 347 17 20 16 2 348 11 282 72 67 177 230 220 199 233 67 55 98 90 73 22 40 36 1 293 92 248 162 193 220 245 95 278 327 322 73 246 280 353 147 284 291 341 81 167 109 30 137 118 190 222 333 329 346 30 55 58 339 335 59 74 64 56 49 45 41 39 35 29
337 333 335 334 337 340 341 339 336 333 329 323 321 321 326 347 343 339 345 12 8 54 30 16 6 9 94 91 129 230 248 235 239 344 5 303 207 137 70 65 44 39 7 82 92 65 188 237 227 82 94 328 356 25 261 212 182 292 53 231 54 336 321 8 54 21 42 164 298 360 326 314 313 344 67 50 317 358 82 76 66 60 53 45 42 37 34 30
335 333 333 334 336 342 342 338 333 331 330 324 317 318 322 348 339 337 331 60 46 76 7 326 5 215 77 76 297 150 151 222 27 10 344 357 353 215 62 46 38 28 28 38 136 134 106 161 217 279 356 97 258 259 251 220 96 272 282 330 19 357 302 327 85 48 54 15 353 340 304 354 308 317 346 349 358 71 91 81 70 61 56 49 41 36 31 26
333 334 335 331 336 343 342 338 332 330 330 323 319 317 317 349 352 353 68 86 68 29 288 346 13 17 119 110 120 180 166 34 352 6 70 337 357 333 1 34 260 48 287 81 56 184 56 41 55 23 299 209 336 347 305 280 175 79 45 314 327 329 312 316 94 88 48 356 37 36 319 308 291 313 328 337 53 95 91 81 71 62 56 50 43 39 33 24
333 336 335 330 337 343 342 339 334 332 330 324 321 313 322 359 356 91 87 67 7 239 29 58 129 303 291 81 289 208 26 296 306 334 30 76 341 313 311 178 46 98 37 160 211 227 14 210 124 216 125 45 310 316 330 305 321 339 19 322 308 305 319 301 354 101 8 0 316 246 263 292 285 307 323 344 98 98 97 83 70 64 55 50 43 40 33 27
334 335 334 331 338 344 343 343 337 333 329 322 318 303 307 334 316 174 72 44 340 25 73 78 190 289 102 252 246 20 120 289 335 319 255 63 8 316 329 349 111 141 226 234 185 344 356 266 191 317 226 19 25 11 8 320 334 310 322 314 308 288 274 287 312 357 4 342 312 320 210 20 308 314 336 35 97 95 90 82 69 59 53 45 43 36 32 27
334 335 332 332 338 345 346 347 338 333 329 317 302 308 253 190 98 108 60 343 293 349 21 19 357 253 53 22 308 294 260 318 279 318 357 333 31 176 105 155 114 212 280 273 90 8 353 254 198 244 342 358 2 0 339 313 311 301 312 304 298 302 312 301 309 337 3 336 327 338 341 330 309 323 2 86 92 95 87 82 67 57 46 44 37 32 28 22
334 332 333 330 340 346 347 349 337 338 336 335 352 349 359 2 359 205 14 80 69 117 256 338 174 280 272 278 331 334 228 255 247 158 256 100 235 208 285 329 273 106 39 358 310 65 283 355 347 332 348 345 328 289 288 305 305 290 271 273 289 295 296 275 301 354 1 340 333 328 329 341 311 336 46 104 97 85 78 65 56 48 45 43 41 32 20 18
332 332 330 330 340 346 349 349 339 345 340 350 320 25 39 335 337 344 341 317 58 67 338 268 269 271 321 332 331 351 2 109 20 336 356 76 258 189 7 290 6 337 50 266 282 287 246 338 276 226 360 312 313 285 255 268 221 268 301 296 308 303 301 313 294 4 353 3 309 335 328 353 327 330 93 103 92 79 67 62 53 45 42 40 31 20 17 8
331 330 330 330 338 346 347 348 342 347 15 22 48 70 95 74 26 328 277 307 13 123 243 267 57 276 243 231 46 342 313 299 247 323 89 301 279 299 12 47 38 329 4 307 237 343 334 327 88 85 77 101 120 213 237 275 305 288 300 309 295 319 321 290 241 17 0 323 307 330 321 348 321 17 91 90 93 95 83 69 62 42 37 32 25 13 3 1
330 329 329 332 338 344 348 341 359 341 9 23 62 81 92 41 8 268 325 207 276 213 330 89 216 274 337 106 74 182 312 28 296 9 350 332 3 49 291 356 22 262 225 20 342 333 321 54 80 72 145 178 165 156 267 273 235 303 319 312 317 340 355 318 174 343 323 300 300 326 312 310 331 88 98 100 106 115 108 88 71 52 37 22 14 8 356 353
329 329 331 335 338 346 341 352 318 3 48 75 79 68 119 4 91 172 184 276 322 327 246 71 303 300 345 346 126 308 328 78 341 347 21 336 43 258 355 74 129 216 237 64 90 268 268 338 94 110 123 212 327 214 281 319 310 86 346 311 324 340 329 290 311 319 315 263 347 324 313 304 146 133 112 111 122 112 91 52 39 38 38 25 8 359 347 339
330 331 336 339 340 343 344 328 39 50 172 70 71 133 146 117 263 262 251 259 185 242 89 220 142 223 131 147 81 266 123 129 292 288 323 347 27 282 53 278 295 215 135 126 217 242 258 33 345 142 69 31 327 317 42 338 299 316 100 31 326 307 313 317 318 332 324 318 96 13 332 321 108 38 152 144 128 74 47 31 22 20 18 9 3 1 355 346
335 333 341 346 344 341 327 281 52 143 119 67 87 157 137 127 265 226 259 12 275 88 216 147 206 131 182 154 19 58 154 233 1 316 314 20 246 322 153 183 8 311 154 222 301 287 321 77 328 20 86 56 6 283 334 187 293 298 50 327 321 307 307 312 321 339 310 310 359 31 302 288 307 53 137 126 97 80 53 31 22 18 15 6 359 354 348 347
337 336 345 355 355 339 242 35 112 187 314 139 204 168 116 212 184 202 274 199 230 118 219 41 231 100 190 35 13 175 260 113 324 3 47 13 4 46 285 313 148 91 30 222 283 224 156 119 91 89 28 4 327 292 92 323 297 275 75 314 299 309 316 314 312 287 275 297 301 182 224 265 293 309 139 125 111 78 31 20 12 13 8 4 2 359 358 356
336 341 350 5 11 21 78 111 135 98 76 84 126 67 104 149 160 234 246 331 205 133 301 187 68 83 285 130 196 232 345 358 246 144 311 338 212 179 285 259 246 173 145 176 271 60 171 140 92 358 21 283 275 338 65 182 238 22 332 252 289 300 302 301 296 289 293 324 308 180 200 274 269 143 131 130 11 16 16 7 4 5 4 359 0 358 354 355
340 343 353 9 8 29 49 73 80 106 134 82 115 94 69 167 218 293 47 268 134 96 56 90 61 160 347 192 120 57 177 65 281 60 315 271 40 288 241 127 152 125 52 218 258 100 319 12 71 231 253 267 97 78 117 177 211 72 327 250 247 265 266 258 282 293 307 323 288 284 247 267 273 268 289 121 104 15 4 358 3 4 360 355 356 355 353 350
341 352 355 356 6 64 54 59 81 116 127 117 132 126 130 180 225 230 358 252 50 211 169 122 239 313 321 309 225 19 196 86 175 317 39 323 3 46 58 350 193 159 176 87 272 16 319 311 312 231 270 25 134 98 45 68 67 279 240 288 314 307 305 288 274 306 307 248 260 260 98 344 289 282 251 349 50 34 355 350 357 358 358 359 355 350 346 343
350 352 11 340 90 112 164 109 171 190 168 135 116 130 201 209 292 202 226 224 65 189 94 24 161 26 36 11 274 113 133 333 331 7 205 86 179 54 139 212 174 177 189 200 221 218 19 138 177 66 26 91 124 132 162 207 276 311 9 1 331 276 205 257 282 257 281 278 149 128 139 29 289 278 106 93 91 31 7 359 355 358 357 354 348 343 340 336
348 32 35 59 121 152 285 76 146 183 157 140 181 197 231 277 135 207 236 98 272 93 234 148 113 67 87 90 221 283 305 304 189 69 346 43 24 291 43 265 88 279 239 178 192 47 202 147 35 318 359 229 187 216 171 194 113 36 25 17 342 307 327 302 197 281 229 270 145 172 359 324 250 280 126 135 71 23 12 4 3 0 354 345 339 336 331 332
64 101 85 73 81 122 80 73 122 153 130 168 196 270 260 74 272 196 258 334 259 20 172 33 294 24 118 324 239 26 119 257 113 103 115 117 223 290 262 275 312 256 278 63 288 287 243 93 317 209 199 2 227 223 170 197 52 39 51 25 331 334 337 296 305 272 277 251 136 124 50 257 273 265 187 147 59 24 5 13 10 356 342 336 331 327 327 327
104 155 151 77 74 93 113 176 124 139 145 191 237 122 71 167 236 51 284 252 296 48 53 90 168 143 192 255 278 149 278 165 108 133 190 161 213 237 201 230 194 155 319 103 254 316 272 226 191 185 172 99 54 28 24 360 48 74 108 189 220 288 286 292 308 309 308 297 285 275 244 219 317 104 159 119 74 354 11 4 357 343 335 330 327 322 325 324
117 103 121 112 139 202 184 206 206 161 186 233 105 189 248 246 258 240 215 255 273 279 144 97 256 43 256 214 238 246 225 314 117 114 206 197 229 212 200 189 219 280 101 233 143 82 231 281 57 2 344 288 116 8 318 101 129 115 50 205 230 228 245 251 336 314 314 313 312 161 208 241 282 128 157 156 336 5 2 346 338 331 330 329 324 324 324 323
151 114 139 173 183 207 166 204 207 160 225 169 162 217 225 196 248 149 287 71 78 261 355 229 185 267 262 247 126 154 119 231 108 213 220 204 273 218 81 133 180 208 191 217 120 228 126 229 89 90 340 43 33 218 37 342 260 132 173 245 45 61 229 277 296 155 220 264 260 265 282 281 161 158 129 9 0 347 345 339 332 331 331 329 326 327 327 325
124 140 209 188 224 181 170 171 172 158 207 171 188 250 230 266 219 172 191 180 246 117 96 313 275 195 293 275 167 174 183 166 231 197 259 131 254 170 156 193 86 218 280 345 221 163 263 359 161 167 157 64 325 83 70 19 340 122 244 284 89 149 122 214 267 314 278 268 271 282 280 298 308 290 126 340 350 341 336 335 332 331 333 329 328 329 330 327
154 189 259 225 205 158 161 163 151 197 75 178 227 240 101 228 189 203 117 116 172 105 204 194 273 149 267 235 245 170 156 215 133 142 268 165 284 116 143 165 163 196 69 314 261 62 78 281 169 276 93 114 251 139 92 49 0 312 317 27 227 234 216 127 105 311 312 284 297 283 294 272 277 278 37 342 345 338 335 334 333 333 333 329 327 329 328 324
114 200 259 122 126 152 143 145 146 152 168 212 228 264 203 230 101 181 189 140 110 132 238 209 239 207 206 241 200 108 157 220 129 206 302 196 223 160 160 152 177 185 304 157 217 104 272 225 355 152 140 149 207 205 229 136 95 52 60 171 358 277 248 161 312 230 257 271 301 290 348 290 233 326 352 330 344 335 332 331 331 329 328 326 326 326 325 323
182 97 241 133 156 137 134 140 116 99 187 222 216 226 87 215 218 202 201 174 215 162 231 220 212 252 180 243 144 269 184 230 187 239 185 249 240 116 160 188 156 156 135 297 163 278 192 111 264 133 179 136 219 188 222 155 165 159 181 184 190 154 9 145 260 182 231 262 258 286 299 283 107 85 345 334 334 333 330 327 326 324 323 323 324 324 323 321
330 135 256 149 153 137 131 125 144 195 213 300 295 245 143 222 180 225 215 287 274 288 251 196 166 209 240 238 248 172 249 196 193 213 206 245 191 269 154 161 156 147 146 109 184 195 176 188 223 149 204 215 194 44 5 153 201 223 211 216 183 163 179 260 277 131 357 228 248 267 267 274 274 343 301 298 330 327 324 322 320 320 322 323 325 323 322 320
140 224 203 147 152 160 157 156 218 122 223 207 225 165 232 151 187 179 158 148 238 220 67 235 245 246 215 218 243 158 199 221 202 208 224 228 161 244 132 123 129 140 159 174 179 74 187 55 172 224 214 238 31 346 293 253 228 214 211 191 143 161 147 208 271 221 167 230 175 251 283 284 132 185 192 329 328 326 320 321 320 323 323 322 321 321 319 319
179 230 40 168 189 181 152 231 129 211 225 249 28 280 90 197 200 159 167 164 207 196 226 215 204 181 234 220 183 203 167 247 157 212 183 215 209 168 153 143 128 133 74 111 68 185 100 138 235 239 147 94 92 76 50 78 142 136 181 159 181 192 184 202 244 284 279 259 244 252 246 255 147 103 348 334 325 315 315 322 322 323 322 319 320 319 321 324
185 165 140 222 185 223 170 220 203 222 238 250 227 254 138 236 177 146 215 183 184 181 198 201 347 215 250 148 171 211 158 264 200 195 216 161 178 77 133 131 167 163 181 194 161 170 145 196 154 259 257 171 134 131 125 58 290 213 188 190 200 204 158 231 262 252 248 238 220 217 250 273 146 66 327 323 314 314 319 321 324 322 320 318 319 321 322 318
119 49 83 135 175 227 213 205 225 238 224 225 211 230 191 237 215 206 185 206 191 177 127 234 188 146 195 163 216 168 199 209 277 197 99 155 117 94 350 128 325 160 31 321 12 55 221 191 160 229 257 270 253 241 194 191 210 217 213 204 207 182 193 159 219 210 242 230 197 222 252 259 281 306 308 309 315 319 320 322 323 323 320 319 321 324 326 324
174 226 140 346 202 237 274 38 307 238 244 224 238 241 204 232 186 238 215 232 182 186 224 133 23 149 136 135 221 205 217 188 210 219 160 155 121 260 180 94 173 91 304 154 108 98 187 280 223 229 239 244 267 352 104 105 170 211 214 188 202 200 200 203 198 212 225 255 263 247 246 282 289 297 304 314 323 322 322 324 325 325 322 322 325 325 320 316
132 223 139 193 154 240 241 204 225 202 236 192 244 177 208 220 217 266 175 219 191 190 185 193 180 161 215 171 225 221 199 180 235 148 195 144 113 149 64 163 17 245 257 155 130 89 136 217 223 229 245 254 273 292 149 183 254 257 253 251 214 190 185 185 194 220 240 286 268 260 261 258 275 296 304 313 320 321 321 321 322 325 322 324 326 320 315 317
204 221 175 181 187 203 208 236 216 230 247 211 239 191 231 221 209 219 124 222 51 205 177 244 205 214 195 197 172 204 173 205 178 218 98 153 119 138 133 157 204 214 209 165 230 201 184 231 241 216 248 252 275 279 273 257 250 252 249 259 253 231 185 185 213 225 238 229 245 269 294 288 286 294 302 310 318 321 321 319 316 318 319 321 320 317 319 324
212 4 219 127 214 237 207 184 178 207 222 217 242 228 233 214 228 209 180 138 174 223 200 228 220 200 215 191 179 222 168 158 235 172 175 149 167 142 174 159 204 171 184 161 174 214 97 257 201 232 259 256 250 259 264 258 255 251 252 255 258 245 235 225 226 224 228 240 250 267 276 276 283 293 299 305 315 317 315 312 312 319 323 321 319 320 324 328
198 181 201 258 264 336 179 155 188 196 222 211 224 227 224 224 236 192 175 171 208 227 192 231 233 190 210 201 202 217 205 204 180 166 176 141 175 187 190 177 135 142 166 176 151 269 147 270 106 246 269 252 233 243 252 251 248 251 258 262 257 254 254 250 243 239 240 253 257 261 268 275 284 290 300 308 310 310 310 310 315 318 321 321 323 327 327 327
186 196 160 150 213 230 210 176 191 195 228 220 221 235 228 226 235 209 223 208 214 205 171 213 221 194 203 205 213 227 213 202 151 157 160 170 190 185 160 217 140 158 169 161 175 240 202 246 89 175 274 265 183 217 246 250 251 250 260 262 258 246 252 246 228 216 212 242 262 275 277 276 293 314 311 306 310 315 316 315 315 319 321 318 326 327 325 324
96 359 163 172 239 203 215 188 212 182 233 222 204 224 218 228 230 202 243 223 229 231 209 208 204 166 203 183 218 219 164 112 102 97 158 74 40 92 107 152 161 154 165 170 160 161 193 182 180 179 256 271 119 156 213 275 267 257 245 251 247 238 228 242 239 208 223 248 266 260 263 290 307 315 313 313 316 316 321 321 317 316 311 316 331 325 322 320